Regional Weather Roundup
Issued by NWS

Home | Current Version | Previous Version | Graphics & Text | Print | Product List | Glossary On
Versions: 1 2 3 4 5 6 7 8 9 10 11 12 13 14 15 16 17 18 19 20 21 22 23 24 25 26 27 28 29 30 31 32 33 34 35 36 37 38 39 40 41 42 43 44 45 46 47 48 49 50
000
ASUS43 KDMX 241506
RWRIA

WEATHER ROUNDUP FOR IOWA
NATIONAL WEATHER SERVICE DES MOINES IA
1000 AM CDT SAT JUN 24 2017

NOTE: "FAIR" INDICATES FEW OR NO CLOUDS BELOW 12,000 FEET WITH NO
SIGNIFICANT WEATHER AND/OR OBSTRUCTIONS TO VISIBILITY.

* - THESE STATIONS ARE NOT NWS STATIONS...THUS NOT UNDER NWS
QUALITY CONTROL.  THEY ALSO DO NOT REPORT WEATHER SUCH
AS PRECIPITATION OR FOG.

IAZ001>003-012>014-020>022-031>034-043>046-241600-
   NORTHWEST IOWA

CITY           SKY/WX    TMP DP  RH WIND       PRES   REMARKS
CARROLL *      SUNNY     66  43  42 W13       30.15S
CHEROKEE *     SUNNY     65  45  48 W8        30.14S
DENISON *      SUNNY     66  43  42 W10       30.17S
LE MARS *      MOSUNNY   66  43  42 SW9       30.15S
ORANGE CITY *  SUNNY     64  45  48 W13       30.13S
SHELDON *      SUNNY     66  41  39 W12       30.11F
SIOUX CITY     SUNNY     68  44  42 VRB7      30.16S
SPENCER        SUNNY     66  41  40 W13G18    30.12F
STORM LAKE *   SUNNY     64  41  42 W12G17    30.14F
$$

IAZ055>058-069>071-079>083-090>094-241600-
   SOUTHWEST IOWA

CITY           SKY/WX    TMP DP  RH WIND       PRES   REMARKS
ATLANTIC *     SUNNY     66  45  45 NW8       30.17R
AUDUBON *      SUNNY     66  45  45 NW7       30.17R
CLARINDA *     SUNNY     66  48  52 W6        30.21R
COUNCIL BLFS * SUNNY     66  45  45 W7        30.18S
CRESTON *      SUNNY     66  45  45 NW13      30.18R
HARLAN  *      SUNNY     66  46  48 NW8       30.20R
LAMONI         SUNNY     68  45  43 NW12      30.18R
RED OAK *      SUNNY     68  46  45 NW8       30.18R
SHENANDOAH *   SUNNY     68  48  49 SW3       30.20R
$$

IAZ047>049-059>061-072>074-084-241600-
   CENTRAL IOWA

CITY           SKY/WX    TMP DP  RH WIND       PRES   REMARKS
AMES           SUNNY     67  43  41 NW15      30.13R
ANKENY *       SUNNY     66  41  39 NW14G22   30.14
BOONE *        SUNNY     64  41  42 NW15      30.13R
CHARITON *     SUNNY     66  45  45 NW15G22   30.15R
DES MOINES     MOSUNNY   69  41  36 NW14      30.13R
GRINNELL*      SUNNY     65  44  46 NW20G25   30.12R
KNOXVILLE *    SUNNY     64  43  45 NW17      30.12
MARSHALLTOWN   SUNNY     64  42  44 W17       30.10S
NEWTON *       SUNNY     64  43  45 NW18G25   30.12S
PELLA *        SUNNY     66  43  42 NW13G21   30.14R
PERRY *          N/A     66  38  35 NW13      30.15R
$$

IAZ004>006-015-016-023>025-035-036-241600-
   NORTH CENTRAL IOWA

CITY           SKY/WX    TMP DP  RH WIND       PRES   REMARKS
ALGONA *       SUNNY     64  39  39 W14       30.11F
CLARION *        N/A     63  39  42 NW18G25   30.11S
ESTHERVILLE    SUNNY     62  42  47 W15       30.10S
FORT DODGE *   SUNNY     64  43  45 NW7       30.13S
MASON CITY     SUNNY     63  40  42 NW20G25   30.10S
FOREST CITY *    N/A     63  32  31 NW16      30.10R
WEBSTER CITY * SUNNY     64  37  36 NW17G24   30.10S
IOWA FALLS *     N/A     64  42  45 NW18G25   30.12R
$$

IAZ007>011-017>019-026>030-037>042-050>054-066-241600-
   NORTHEAST IOWA

CITY           SKY/WX    TMP DP  RH WIND       PRES   REMARKS
CEDAR RAPIDS   SUNNY     65  45  48 NW17G29   30.07R
CHARLES CITY * SUNNY     61  41  48 NW18      30.07
DECORAH *      SUNNY     61  43  51 NW10G21   30.03R
DUBUQUE        MOSUNNY   66  47  50 W15G22    30.03R
MONTICELLO *   MOSUNNY   64  46  52 W16G29    30.04
OELWEIN *      SUNNY     63  46  55 NW21      30.06
WATERLOO       SUNNY     64  43  46 NW15G23   30.07R
$$

IAZ064-065-067-068-078-241600-
   EAST CENTRAL IOWA

CITY           SKY/WX    TMP DP  RH WIND       PRES   REMARKS
DAVENPORT      SUNNY     67  51  56 W13       30.05R
IOWA CITY      SUNNY     68  44  42 NW15G23   30.09R
MT. PLEASANT * MOSUNNY   67  44  43 NW15G21   30.10S
MUSCATINE *    SUNNY     68  46  45 NW18      30.08R
QUAD CITIES    MOSUNNY   69  49  48 NW12      30.04S
$$

IAZ062-063-075>077-085>089-095>099-241600-
   SOUTHEAST IOWA

CITY           SKY/WX    TMP DP  RH WIND       PRES   REMARKS
BURLINGTON     SUNNY     69  46  43 NW14G22   30.09R
FAIRFIELD *    SUNNY     68  43  40 NW18G24   30.11R
FORT MADISON * SUNNY     70  45  40 NW14G22   30.10S
KEOKUK *       SUNNY     70  48  46 NW10      30.10R
OSKALOOSA *      N/A     66  45  45 NW16G22   30.12R
CENTERVILLE *    N/A     68  46  45 NW8       30.16R
OTTUMWA        SUNNY     70  43  37 NW18      30.12R
WASHINGTON *   SUNNY     68  43  40 NW17G25   30.11R
$$

ABBREVIATIONS USED IN REMARKS
   TC - TEMPERATURES IN CELSIUS
  WCI - WIND CHILL INDEX
   HX - HEAT INDEX
  VSB - VISIBILITY
$$





USA.gov is the U.S. government's official web portal to all federal, state and local government web resources and services.